Météo par heure à Aligudarz

Ce jour, 29 Octobre, Jeudi

Heure Température Précipitation Vent Pression Humidité
00:00 +9°C° 0 mm 1 m/s 596 mmHg 30%
01:00 +8°C° 0 mm 1 m/s 595 mmHg 31%
02:00 +8°C° 0 mm 1 m/s 595 mmHg 32%
03:00 +7°C° 0 mm 1 m/s 595 mmHg 34%
04:00 +7°C° 0 mm 1 m/s 595 mmHg 35%
05:00 +6°C° 0 mm 1 m/s 595 mmHg 36%
06:00 +6°C° 0 mm 1 m/s 595 mmHg 36%
07:00 +9°C° 0 mm 1 m/s 596 mmHg 30%
08:00 +13°C° 0 mm 1 m/s 598 mmHg 23%
09:00 +16°C° 0 mm 1 m/s 600 mmHg 17%
10:00 +18°C° 0 mm 1 m/s 600 mmHg 15%
11:00 +20°C° 0 mm 1 m/s 600 mmHg 13%
12:00 +21°C° 0 mm 1 m/s 600 mmHg 11%
13:00 +20°C° 0 mm 2 m/s 600 mmHg 11%
14:00 +21°C° 0 mm 2 m/s 600 mmHg 11%
15:00 +21°C° 0 mm 3 m/s 599 mmHg 10%
16:00 +18°C° 0 mm 2 m/s 598 mmHg 14%
17:00 +15°C° 0 mm 1 m/s 597 mmHg 17%
18:00 +11°C° 0 mm 0 m/s 596 mmHg 20%
19:00 +11°C° 0 mm 0 m/s 596 mmHg 21%
20:00 +10°C° 0 mm 0 m/s 596 mmHg 23%
21:00 +11°C° 0 mm 1 m/s 596 mmHg 24%
22:00 +10°C° 0 mm 1 m/s 596 mmHg 26%
23:00 +8°C° 0 mm 0 m/s 595 mmHg 28%

Demain, 30 Octobre, Vendredi

Heure Température Précipitation Vent Pression Humidité
00:00 +7°C° 0 mm 0 m/s 595 mmHg 30%
01:00 +7°C° 0 mm 0 m/s 595 mmHg 31%
02:00 +6°C° 0 mm 0 m/s 594 mmHg 33%
03:00 +6°C° 0 mm 0 m/s 594 mmHg 35%
04:00 +6°C° 0 mm 0 m/s 594 mmHg 36%
05:00 +5°C° 0 mm 0 m/s 594 mmHg 38%
06:00 +5°C° 0 mm 0 m/s 594 mmHg 40%
07:00 +9°C° 0 mm 0 m/s 596 mmHg 32%
08:00 +12°C° 0 mm 0 m/s 598 mmHg 23%
09:00 +16°C° 0 mm 0 m/s 600 mmHg 14%
10:00 +17°C° 0 mm 0 m/s 599 mmHg 13%
11:00 +20°C° 0 mm 1 m/s 599 mmHg 12%
12:00 +21°C° 0 mm 1 m/s 599 mmHg 10%
13:00 +20°C° 0 mm 2 m/s 599 mmHg 10%
14:00 +21°C° 0 mm 2 m/s 599 mmHg 10%
15:00 +21°C° 0 mm 2 m/s 598 mmHg 9%
16:00 +18°C° 0 mm 2 m/s 597 mmHg 12%
17:00 +15°C° 0 mm 1 m/s 596 mmHg 15%
18:00 +12°C° 0 mm 0 m/s 595 mmHg 19%
19:00 +11°C° 0 mm 0 m/s 595 mmHg 20%
20:00 +10°C° 0 mm 0 m/s 595 mmHg 21%
21:00 +9°C° 0 mm 0 m/s 595 mmHg 22%
22:00 +9°C° 0 mm 0 m/s 595 mmHg 23%
23:00 +8°C° 0 mm 0 m/s 594 mmHg 25%

Après-demain, 31 Octobre, Samedi

Heure Température Précipitation Vent Pression Humidité
00:00 +7°C° 0 mm 0 m/s 594 mmHg 26%
01:00 +7°C° 0 mm 0 m/s 594 mmHg 29%
02:00 +6°C° 0 mm 0 m/s 593 mmHg 32%
03:00 +6°C° 0 mm 0 m/s 593 mmHg 35%
04:00 +6°C° 0 mm 0 m/s 593 mmHg 35%
05:00 +6°C° 0 mm 1 m/s 593 mmHg 36%
06:00 +6°C° 0 mm 1 m/s 593 mmHg 36%
07:00 +10°C° 0 mm 1 m/s 595 mmHg 28%
08:00 +13°C° 0 mm 1 m/s 597 mmHg 21%
09:00 +18°C° 0 mm 1 m/s 599 mmHg 13%
10:00 +19°C° 0 mm 1 m/s 599 mmHg 12%
11:00 +21°C° 0 mm 1 m/s 599 mmHg 11%
12:00 +22°C° 0 mm 1 m/s 599 mmHg 9%
13:00 +21°C° 0 mm 2 m/s 599 mmHg 9%
14:00 +21°C° 0 mm 2 m/s 599 mmHg 9%
15:00 +21°C° 0 mm 3 m/s 599 mmHg 9%
16:00 +18°C° 0 mm 2 m/s 598 mmHg 12%
17:00 +15°C° 0 mm 2 m/s 597 mmHg 15%
18:00 +13°C° 0 mm 1 m/s 595 mmHg 18%
19:00 +12°C° 0 mm 1 m/s 595 mmHg 20%
20:00 +11°C° 0 mm 1 m/s 595 mmHg 23%
21:00 +10°C° 0 mm 1 m/s 595 mmHg 25%
22:00 +9°C° 0 mm 1 m/s 594 mmHg 25%
23:00 +8°C° 0 mm 1 m/s 594 mmHg 26%

1 Novembre, Dimanche

Heure Température Précipitation Vent Pression Humidité
00:00 +8°C° 0 mm 1 m/s 594 mmHg 26%
01:00 +7°C° 0 mm 1 m/s 594 mmHg 28%
02:00 +7°C° 0 mm 1 m/s 594 mmHg 29%
03:00 +6°C° 0 mm 1 m/s 593 mmHg 31%
04:00 +6°C° 0 mm 1 m/s 593 mmHg 33%
05:00 +6°C° 0 mm 1 m/s 593 mmHg 35%
06:00 +5°C° 0 mm 1 m/s 593 mmHg 37%
07:00 +9°C° 0 mm 1 m/s 595 mmHg 29%
08:00 +12°C° 0 mm 1 m/s 597 mmHg 21%
09:00 +16°C° 0 mm 1 m/s 599 mmHg 13%
10:00 +18°C° 0 mm 1 m/s 599 mmHg 12%
11:00 +18°C° 0 mm 2 m/s 599 mmHg 10%
12:00 +20°C° 0 mm 2 m/s 600 mmHg 8%
13:00 +20°C° 0 mm 2 m/s 600 mmHg 8%
14:00 +20°C° 0 mm 3 m/s 599 mmHg 8%
15:00 +20°C° 0 mm 3 m/s 599 mmHg 8%
16:00 +17°C° 0 mm 2 m/s 598 mmHg 11%
17:00 +14°C° 0 mm 2 m/s 597 mmHg 13%
18:00 +12°C° 0 mm 1 m/s 596 mmHg 16%
19:00 +11°C° 0 mm 1 m/s 596 mmHg 18%
20:00 +9°C° 0 mm 0 m/s 596 mmHg 19%
21:00 +8°C° 0 mm 0 m/s 596 mmHg 21%
22:00 +8°C° 0 mm 0 m/s 595 mmHg 22%
23:00 +7°C° 0 mm 0 m/s 595 mmHg 23%

2 Novembre, Lundi

Heure Température Précipitation Vent Pression Humidité
00:00 +7°C° 0 mm 0 m/s 595 mmHg 24%
01:00 +6°C° 0 mm 0 m/s 595 mmHg 27%
02:00 +6°C° 0 mm 0 m/s 595 mmHg 30%
03:00 +5°C° 0 mm 0 m/s 595 mmHg 33%
04:00 +5°C° 0 mm 0 m/s 595 mmHg 34%
05:00 +5°C° 0 mm 0 m/s 595 mmHg 35%
06:00 +5°C° 0 mm 0 m/s 595 mmHg 36%
07:00 +8°C° 0 mm 0 m/s 597 mmHg 28%
08:00 +13°C° 0 mm 1 m/s 599 mmHg 20%
09:00 +18°C° 0 mm 1 m/s 601 mmHg 12%
10:00 +19°C° 0 mm 1 m/s 601 mmHg 10%
11:00 +21°C° 0 mm 1 m/s 601 mmHg 9%
12:00 +22°C° 0 mm 1 m/s 601 mmHg 8%
13:00 +21°C° 0 mm 2 m/s 601 mmHg 8%
14:00 +21°C° 0 mm 2 m/s 601 mmHg 8%
15:00 +21°C° 0 mm 3 m/s 601 mmHg 8%
16:00 +19°C° 0 mm 2 m/s 600 mmHg 11%
17:00 +16°C° 0 mm 1 m/s 599 mmHg 14%
18:00 +13°C° 0 mm 1 m/s 598 mmHg 17%
19:00 +12°C° 0 mm 1 m/s 598 mmHg 18%
20:00 +12°C° 0 mm 1 m/s 598 mmHg 18%
21:00 +11°C° 0 mm 1 m/s 597 mmHg 19%
22:00 +11°C° 0 mm 1 m/s 597 mmHg 20%
23:00 +10°C° 0 mm 1 m/s 597 mmHg 20%

3 Novembre, Mardi

Heure Température Précipitation Vent Pression Humidité
00:00 +10°C° 0 mm 1 m/s 597 mmHg 21%
01:00 +9°C° 0 mm 1 m/s 597 mmHg 23%
02:00 +8°C° 0 mm 1 m/s 596 mmHg 24%
03:00 +8°C° 0 mm 1 m/s 596 mmHg 26%
04:00 +7°C° 0 mm 1 m/s 596 mmHg 27%
05:00 +7°C° 0 mm 1 m/s 596 mmHg 28%
06:00 +6°C° 0 mm 1 m/s 595 mmHg 29%
07:00 +10°C° 0 mm 1 m/s 597 mmHg 24%
08:00 +13°C° 0 mm 1 m/s 599 mmHg 19%
09:00 +16°C° 0 mm 2 m/s 601 mmHg 14%
10:00 +18°C° 0 mm 2 m/s 601 mmHg 12%
11:00 +20°C° 0 mm 2 m/s 601 mmHg 10%
12:00 +23°C° 0 mm 2 m/s 601 mmHg 8%
13:00 +23°C° 0 mm 2 m/s 601 mmHg 8%
14:00 +23°C° 0 mm 1 m/s 601 mmHg 7%
15:00 +23°C° 0 mm 1 m/s 601 mmHg 7%
16:00 +20°C° 0 mm 1 m/s 600 mmHg 10%
17:00 +16°C° 0 mm 1 m/s 598 mmHg 14%
18:00 +13°C° 0 mm 1 m/s 597 mmHg 18%
19:00 +12°C° 0 mm 1 m/s 597 mmHg 19%
20:00 +11°C° 0 mm 1 m/s 597 mmHg 21%
21:00 +10°C° 0 mm 1 m/s 596 mmHg 22%
22:00 +9°C° 0 mm 1 m/s 596 mmHg 24%
23:00 +9°C° 0 mm 1 m/s 596 mmHg 26%
Voir plus

Nous avons besoin de votre consentement

Meteoprog et ses fournisseurs de services peuvent stocker et accéder à des données personnelles telles que des cookies, des identifiants d'appareils ou d'autres technologies similaires sur votre appareil et traiter ces données pour personnaliser le contenu et les publicités, ainsi que pour fournir des fonctionnalités de médias sociaux et analyser le trafic.

  • Stocker et/ou accéder à des informations sur votre appareil

    Des cookies, des identifiants d'appareils ou d'autres informations peuvent être stockés ou accessibles sur votre appareil aux fins indiquées ci-dessus.

  • Annonces et contenus personnalisés, mesure des annonces et des contenus, connaissance de l'audience et développement de produits

    Les annonces et le contenu peuvent être personnalisés en fonction d'un profil. D'autres données peuvent être ajoutées pour mieux personnaliser les annonces et le contenu. Les performances des publicités et du contenu peuvent être mesurées. Il est possible d'obtenir des informations sur le public qui a vu les publicités et le contenu. Ces données peuvent être utilisées pour développer ou améliorer l'expérience de l'utilisateur, les systèmes et les logiciels.

En cliquant sur "J'accepte", vous autorisez l'utilisation de cookies, des identifiants d'appareils, des balises web ou d'autres technologies similaires. Vos paramètres peuvent être modifiés dans le navigateur de votre appareil.

Dans certains cas, des intérêts légitimes peuvent être invoqués plutôt qu'un consentement. Vous pouvez en savoir plus à ce sujet dans notre Politique de confidentialité et de cookies.